Time,TemperatureF,DewpointF,PressureIn,WindDirection,WindDirectionDegrees,WindSpeedMPH,WindSpeedGustMPH,Humidity,HourlyPrecipIn,Conditions,Clouds,dailyrainin,SoftwareType,DateUTC
2013-02-13 00:01:00,29.0,24.0,-100.00,West,260,6.0,9.0,79,0.00,,,-99.99,,2013-02-13 05:01:00,
2013-02-13 00:11:00,29.0,24.0,-100.00,WSW,255,6.0,7.0,79,0.00,,,-99.99,,2013-02-13 05:11:00,
2013-02-13 00:22:00,29.0,24.0,-100.00,WNW,290,7.0,11.0,80,0.00,,,-99.99,,2013-02-13 05:22:00,
2013-02-13 00:32:00,29.0,24.0,-100.00,WNW,300,7.0,11.0,80,0.00,,,-99.99,,2013-02-13 05:32:00,
2013-02-13 00:42:00,29.0,24.0,-100.00,WNW,300,7.0,11.0,80,0.00,,,-99.99,,2013-02-13 05:42:00,
2013-02-13 00:52:00,29.0,24.0,-100.00,WNW,285,9.0,10.0,80,0.00,,,-99.99,,2013-02-13 05:52:00,
2013-02-13 01:02:00,29.0,24.0,-100.00,West,280,6.0,10.0,80,0.00,,,-99.99,,2013-02-13 06:02:00,
2013-02-13 01:11:00,29.0,24.0,-100.00,WNW,295,4.0,7.0,81,0.00,,,-99.99,,2013-02-13 06:11:00,
2013-02-13 01:22:00,29.0,23.0,-100.00,NNW,340,2.0,7.0,80,0.00,,,-99.99,,2013-02-13 06:22:00,
2013-02-13 01:32:00,29.0,24.0,-100.00,NW,305,4.0,9.0,81,0.00,,,-99.99,,2013-02-13 06:32:00,
2013-02-13 01:42:00,28.0,23.0,-100.00,NW,305,4.0,7.0,81,0.00,,,-99.99,,2013-02-13 06:42:00,
2013-02-13 01:51:00,28.0,23.0,-100.00,West,270,5.0,6.0,81,0.00,,,-99.99,,2013-02-13 06:51:00,
2013-02-13 02:02:00,28.0,23.0,-100.00,West,260,6.0,7.0,81,0.00,,,-99.99,,2013-02-13 07:02:00,
2013-02-13 02:11:00,28.0,24.0,-100.00,West,270,5.0,6.0,81,0.00,,,-99.99,,2013-02-13 07:11:00,
2013-02-13 02:22:00,28.0,23.0,-100.00,West,265,3.0,7.0,81,0.00,,,-99.99,,2013-02-13 07:22:00,
2013-02-13 02:32:00,28.0,23.0,-100.00,WNW,300,6.0,7.0,81,0.00,,,-99.99,,2013-02-13 07:32:00,
2013-02-13 02:42:00,28.0,23.0,-100.00,West,275,6.0,8.0,81,0.00,,,-99.99,,2013-02-13 07:42:00,
2013-02-13 02:51:00,28.0,23.0,-100.00,NW,315,7.0,8.0,81,0.00,,,-99.99,,2013-02-13 07:51:00,
2013-02-13 03:01:00,28.0,23.0,-100.00,West,280,4.0,7.0,81,0.00,,,-99.99,,2013-02-13 08:01:00,
2013-02-13 03:11:00,28.0,23.0,-100.00,WNW,295,4.0,7.0,81,0.00,,,-99.99,,2013-02-13 08:11:00,
2013-02-13 03:21:00,28.0,24.0,-100.00,WNW,285,4.0,7.0,82,0.00,,,-99.99,,2013-02-13 08:21:00,
2013-02-13 03:32:00,28.0,23.0,-100.00,WNW,285,6.0,8.0,82,0.00,,,-99.99,,2013-02-13 08:32:00,
2013-02-13 03:43:00,28.0,23.0,-100.00,West,260,4.0,7.0,82,0.00,,,-99.99,,2013-02-13 08:43:00,
2013-02-13 03:52:00,28.0,23.0,-100.00,West,265,3.0,7.0,82,0.00,,,-99.99,,2013-02-13 08:52:00,
2013-02-13 04:02:00,28.0,23.0,-100.00,West,265,6.0,7.0,83,0.00,,,-99.99,,2013-02-13 09:02:00,
2013-02-13 04:11:00,28.0,23.0,-100.00,WNW,300,5.0,9.0,82,0.00,,,-99.99,,2013-02-13 09:11:00,
2013-02-13 04:21:00,28.0,23.0,-100.00,WNW,295,5.0,7.0,83,0.00,,,-99.99,,2013-02-13 09:21:00,
2013-02-13 04:32:00,28.0,23.0,-100.00,WNW,290,4.0,6.0,83,0.00,,,-99.99,,2013-02-13 09:32:00,
2013-02-13 04:42:00,28.0,23.0,-100.00,WNW,290,3.0,7.0,83,0.00,,,-99.99,,2013-02-13 09:42:00,
2013-02-13 04:51:00,28.0,23.0,-100.00,WNW,295,1.0,7.0,83,0.00,,,-99.99,,2013-02-13 09:51:00,
2013-02-13 05:01:00,28.0,23.0,-100.00,NW,305,4.0,4.0,83,0.00,,,-99.99,,2013-02-13 10:01:00,
2013-02-13 05:11:00,28.0,23.0,-100.00,NW,305,4.0,4.0,83,0.00,,,-99.99,,2013-02-13 10:11:00,
2013-02-13 05:21:00,28.0,23.0,-100.00,WSW,245,5.0,6.0,83,0.00,,,-99.99,,2013-02-13 10:21:00,
2013-02-13 05:32:00,27.0,23.0,-100.00,North,350,3.0,7.0,83,0.00,,,-99.99,,2013-02-13 10:32:00,
2013-02-13 05:42:00,27.0,23.0,-100.00,West,275,4.0,6.0,83,0.00,,,-99.99,,2013-02-13 10:42:00,
2013-02-13 05:52:00,27.0,23.0,-100.00,West,270,6.0,9.0,83,0.00,,,-99.99,,2013-02-13 10:52:00,
2013-02-13 06:01:00,27.0,23.0,-100.00,West,270,6.0,9.0,83,0.00,,,-99.99,,2013-02-13 11:01:00,
2013-02-13 06:11:00,27.0,23.0,-100.00,WNW,290,6.0,7.0,84,0.00,,,-99.99,,2013-02-13 11:11:00,
2013-02-13 06:22:00,27.0,23.0,-100.00,WNW,290,1.0,7.0,84,0.00,,,-99.99,,2013-02-13 11:22:00,
2013-02-13 06:32:00,27.0,23.0,-100.00,NNW,335,0.0,3.0,84,0.00,,,-99.99,,2013-02-13 11:32:00,
2013-02-13 06:42:00,27.0,23.0,-100.00,NW,315,2.0,4.0,84,0.00,,,-99.99,,2013-02-13 11:42:00,
2013-02-13 06:52:00,27.0,23.0,-100.00,SW,225,1.0,3.0,84,0.00,,,-99.99,,2013-02-13 11:52:00,
2013-02-13 07:02:00,27.0,23.0,-100.00,West,275,2.0,3.0,84,0.00,,,-99.99,,2013-02-13 12:02:00,
2013-02-13 07:11:00,27.0,23.0,-100.00,WNW,285,5.0,6.0,84,0.00,,,-99.99,,2013-02-13 12:11:00,
2013-02-13 07:22:00,27.0,23.0,-100.00,NW,310,4.0,5.0,85,0.00,,,-99.99,,2013-02-13 12:22:00,
2013-02-13 07:32:00,27.0,23.0,-100.00,WNW,295,2.0,6.0,85,0.00,,,-99.99,,2013-02-13 12:32:00,
2013-02-13 07:42:00,27.0,23.0,-100.00,NW,315,2.0,6.0,85,0.00,,,-99.99,,2013-02-13 12:42:00,
2013-02-13 07:52:00,27.0,23.0,-100.00,WNW,295,2.0,7.0,85,0.00,,,-99.99,,2013-02-13 12:52:00,
2013-02-13 08:02:00,27.0,23.0,-100.00,West,280,1.0,2.0,85,0.00,,,-99.99,,2013-02-13 13:02:00,
2013-02-13 08:11:00,26.0,23.0,-100.00,NW,315,1.0,2.0,85,0.00,,,-99.99,,2013-02-13 13:11:00,
2013-02-13 08:21:00,26.0,23.0,-100.00,North,0,1.0,1.0,85,0.00,,,-99.99,,2013-02-13 13:21:00,
2013-02-13 08:32:00,27.0,23.0,-100.00,NNW,335,0.0,2.0,85,0.00,,,-99.99,,2013-02-13 13:32:00,
2013-02-13 08:42:00,27.0,23.0,-100.00,East,95,1.0,2.0,86,0.00,,,-99.99,,2013-02-13 13:42:00,
2013-02-13 08:51:00,27.0,23.0,-100.00,South,170,2.0,4.0,86,0.00,,,-99.99,,2013-02-13 13:51:00,
2013-02-13 09:01:00,27.0,23.0,-100.00,ESE,110,4.0,7.0,85,0.00,,,-99.99,,2013-02-13 14:01:00,
2013-02-13 09:11:00,27.0,23.0,-100.00,East,80,1.0,6.0,85,0.00,,,-99.99,,2013-02-13 14:11:00,
2013-02-13 09:21:00,27.0,24.0,-100.00,SE,125,1.0,2.0,85,0.00,,,-99.99,,2013-02-13 14:21:00,
2013-02-13 09:32:00,28.0,24.0,-100.00,SW,220,1.0,2.0,85,0.00,,,-99.99,,2013-02-13 14:32:00,
2013-02-13 09:42:00,28.0,24.0,-100.00,NE,50,1.0,4.0,85,0.00,,,-99.99,,2013-02-13 14:42:00,
2013-02-13 09:52:00,28.0,24.0,-100.00,NE,55,2.0,6.0,84,0.00,,,-99.99,,2013-02-13 14:52:00,
2013-02-13 10:01:00,28.0,24.0,-100.00,ESE,105,4.0,5.0,83,0.00,,,-99.99,,2013-02-13 15:01:00,
2013-02-13 10:11:00,28.0,24.0,-100.00,SSE,165,2.0,4.0,83,0.00,,,-99.99,,2013-02-13 15:11:00,
2013-02-13 10:21:00,28.0,24.0,-100.00,SSE,150,4.0,7.0,83,0.00,,,-99.99,,2013-02-13 15:21:00,
2013-02-13 10:32:00,29.0,24.0,-100.00,SSE,160,1.0,3.0,82,0.00,,,-99.99,,2013-02-13 15:32:00,
2013-02-13 10:42:00,29.0,24.0,-100.00,SE,145,2.0,7.0,82,0.00,,,-99.99,,2013-02-13 15:42:00,
2013-02-13 10:51:00,29.0,24.0,-100.00,SSW,195,4.0,7.0,83,0.00,,,-99.99,,2013-02-13 15:51:00,
2013-02-13 11:01:00,30.0,25.0,-100.00,SE,140,4.0,7.0,82,0.00,,,-99.99,,2013-02-13 16:01:00,
2013-02-13 11:11:00,30.0,25.0,-100.00,SE,140,4.0,7.0,82,0.00,,,-99.99,,2013-02-13 16:11:00,
2013-02-13 11:21:00,30.0,24.0,-100.00,SSW,210,4.0,7.0,80,0.00,,,-99.99,,2013-02-13 16:21:00,
2013-02-13 11:32:00,29.0,24.0,-100.00,SW,230,6.0,8.0,81,0.00,,,-99.99,,2013-02-13 16:32:00,
2013-02-13 11:42:00,30.0,25.0,-100.00,SW,225,5.0,7.0,81,0.00,,,-99.99,,2013-02-13 16:42:00,
2013-02-13 11:52:00,31.0,25.0,-100.00,SW,225,6.0,7.0,80,0.00,,,-99.99,,2013-02-13 16:52:00,
2013-02-13 12:01:00,31.0,26.0,-100.00,South,175,4.0,9.0,79,0.00,,,-99.99,,2013-02-13 17:01:00,
2013-02-13 12:11:00,32.0,26.0,-100.00,SW,220,4.0,6.0,77,0.00,,,-99.99,,2013-02-13 17:11:00,
2013-02-13 12:21:00,32.0,26.0,-100.00,SW,220,4.0,6.0,77,0.00,,,-99.99,,2013-02-13 17:21:00,
2013-02-13 12:32:00,33.0,26.0,-100.00,West,265,6.0,8.0,76,0.00,,,-99.99,,2013-02-13 17:32:00,
2013-02-13 12:42:00,33.0,27.0,-100.00,SW,225,2.0,9.0,76,0.00,,,-99.99,,2013-02-13 17:42:00,
2013-02-13 12:52:00,34.0,27.0,-100.00,WSW,240,5.0,7.0,74,0.00,,,-99.99,,2013-02-13 17:52:00,
2013-02-13 13:02:00,34.0,27.0,-100.00,SW,225,4.0,9.0,73,0.00,,,-99.99,,2013-02-13 18:02:00,
2013-02-13 13:11:00,35.0,27.0,-100.00,West,265,6.0,8.0,73,0.00,,,-99.99,,2013-02-13 18:11:00,
2013-02-13 13:23:00,35.0,27.0,-100.00,SW,230,4.0,7.0,71,0.00,,,-99.99,,2013-02-13 18:23:00,
2013-02-13 13:32:00,36.0,27.0,-100.00,WSW,250,4.0,8.0,71,0.00,,,-99.99,,2013-02-13 18:32:00,
2013-02-13 13:42:00,37.0,28.0,-100.00,SW,220,4.0,9.0,70,0.00,,,-99.99,,2013-02-13 18:42:00,
2013-02-13 13:52:00,37.0,28.0,-100.00,SW,235,4.0,7.0,68,0.00,,,-99.99,,2013-02-13 18:52:00,
2013-02-13 14:01:00,38.0,28.0,-100.00,WSW,240,4.0,8.0,68,0.00,,,-99.99,,2013-02-13 19:01:00,
2013-02-13 14:11:00,38.0,28.0,-100.00,SW,220,6.0,9.0,66,0.00,,,-99.99,,2013-02-13 19:11:00,
2013-02-13 14:21:00,39.0,28.0,-100.00,SW,225,4.0,8.0,65,0.00,,,-99.99,,2013-02-13 19:21:00,
2013-02-13 14:32:00,39.0,28.0,-100.00,WSW,255,5.0,7.0,63,0.00,,,-99.99,,2013-02-13 19:32:00,
2013-02-13 14:42:00,40.0,28.0,-100.00,SW,230,5.0,9.0,62,0.00,,,-99.99,,2013-02-13 19:42:00,
2013-02-13 14:51:00,40.0,28.0,-100.00,SW,230,5.0,9.0,62,0.00,,,-99.99,,2013-02-13 19:51:00,
2013-02-13 15:02:00,40.0,28.0,-100.00,SW,220,9.0,12.0,61,0.00,,,-99.99,,2013-02-13 20:02:00,
2013-02-13 15:11:00,40.0,28.0,-100.00,SW,230,8.0,11.0,60,0.00,,,-99.99,,2013-02-13 20:11:00,
2013-02-13 15:21:00,41.0,28.0,-100.00,SW,215,6.0,9.0,60,0.00,,,-99.99,,2013-02-13 20:21:00,
2013-02-13 15:32:00,41.0,28.0,-100.00,WSW,245,7.0,10.0,60,0.00,,,-99.99,,2013-02-13 20:32:00,
2013-02-13 15:42:00,41.0,28.0,-100.00,SW,225,7.0,10.0,59,0.00,,,-99.99,,2013-02-13 20:42:00,
2013-02-13 15:52:00,41.0,28.0,-100.00,SW,215,7.0,10.0,59,0.00,,,-99.99,,2013-02-13 20:52:00,
2013-02-13 16:02:00,42.0,29.0,-100.00,WSW,240,6.0,9.0,58,0.00,,,-99.99,,2013-02-13 21:02:00,
2013-02-13 16:11:00,42.0,28.0,-100.00,SW,215,6.0,11.0,58,0.00,,,-99.99,,2013-02-13 21:11:00,
2013-02-13 16:21:00,42.0,28.0,-100.00,SW,235,7.0,11.0,56,0.00,,,-99.99,,2013-02-13 21:21:00,
2013-02-13 16:32:00,43.0,28.0,-100.00,SW,215,5.0,10.0,56,0.00,,,-99.99,,2013-02-13 21:32:00,
2013-02-13 16:42:00,43.0,28.0,-100.00,SW,225,6.0,11.0,55,0.00,,,-99.99,,2013-02-13 21:42:00,
2013-02-13 16:52:00,43.0,28.0,-100.00,SW,225,6.0,11.0,55,0.00,,,-99.99,,2013-02-13 21:52:00,
2013-02-13 17:02:00,42.0,28.0,-100.00,WSW,255,7.0,10.0,55,0.00,,,-99.99,,2013-02-13 22:02:00,
2013-02-13 17:11:00,43.0,28.0,-100.00,SW,220,6.0,9.0,55,0.00,,,-99.99,,2013-02-13 22:11:00,
2013-02-13 17:21:00,43.0,28.0,-100.00,SW,230,6.0,7.0,55,0.00,,,-99.99,,2013-02-13 22:21:00,
2013-02-13 17:32:00,42.0,28.0,-100.00,SW,235,3.0,9.0,56,0.00,,,-99.99,,2013-02-13 22:32:00,
2013-02-13 17:42:00,42.0,28.0,-100.00,SW,220,4.0,6.0,56,0.00,,,-99.99,,2013-02-13 22:42:00,
2013-02-13 17:51:00,42.0,28.0,-100.00,SW,230,3.0,5.0,58,0.00,,,-99.99,,2013-02-13 22:51:00,
2013-02-13 18:01:00,41.0,28.0,-100.00,SW,230,2.0,5.0,58,0.00,,,-99.99,,2013-02-13 23:01:00,
2013-02-13 18:11:00,40.0,28.0,-100.00,SSW,200,2.0,3.0,60,0.00,,,-99.99,,2013-02-13 23:11:00,
2013-02-13 18:21:00,40.0,27.0,-100.00,SSE,150,2.0,2.0,60,0.00,,,-99.99,,2013-02-13 23:21:00,
2013-02-13 18:32:00,38.0,28.0,-100.00,SE,140,7.0,9.0,67,0.00,,,-99.99,,2013-02-13 23:32:00,
2013-02-13 18:42:00,38.0,28.0,-100.00,SE,140,7.0,9.0,67,0.00,,,-99.99,,2013-02-13 23:42:00,
2013-02-13 18:52:00,36.0,29.0,-100.00,SSE,150,6.0,8.0,75,0.00,,,-99.99,,2013-02-13 23:52:00,
2013-02-13 19:02:00,36.0,29.0,-100.00,SE,140,4.0,9.0,77,0.00,,,-99.99,,2013-02-14 00:02:00,
2013-02-13 19:11:00,35.0,30.0,-100.00,SSE,160,4.0,8.0,79,0.00,,,-99.99,,2013-02-14 00:11:00,
2013-02-13 19:22:00,35.0,30.0,-100.00,SE,145,5.0,7.0,81,0.00,,,-99.99,,2013-02-14 00:22:00,
2013-02-13 19:32:00,35.0,30.0,-100.00,SSE,150,3.0,7.0,82,0.00,,,-99.99,,2013-02-14 00:32:00,
2013-02-13 19:42:00,34.0,30.0,-100.00,SE,145,5.0,9.0,84,0.00,,,-99.99,,2013-02-14 00:42:00,
2013-02-13 19:52:00,34.0,30.0,-100.00,SE,145,3.0,9.0,85,0.00,,,-99.99,,2013-02-14 00:52:00,
2013-02-13 20:01:00,34.0,30.0,-100.00,SE,145,4.0,7.0,86,0.00,,,-99.99,,2013-02-14 01:01:00,
2013-02-13 20:11:00,34.0,30.0,-100.00,SSE,155,4.0,7.0,87,0.00,,,-99.99,,2013-02-14 01:11:00,
2013-02-13 20:21:00,33.0,30.0,-100.00,SSE,155,4.0,7.0,88,0.00,,,-99.99,,2013-02-14 01:21:00,
2013-02-13 20:32:00,33.0,30.0,-100.00,SSE,155,4.0,7.0,88,0.00,,,-99.99,,2013-02-14 01:32:00,
2013-02-13 20:41:00,33.0,30.0,-100.00,SSE,150,3.0,6.0,89,0.00,,,-99.99,,2013-02-14 01:41:00,
2013-02-13 20:51:00,33.0,30.0,-100.00,SSE,150,3.0,7.0,90,0.00,,,-99.99,,2013-02-14 01:51:00,
2013-02-13 21:02:00,33.0,30.0,-100.00,SSE,150,3.0,7.0,90,0.00,,,-99.99,,2013-02-14 02:02:00,
2013-02-13 21:11:00,33.0,30.0,-100.00,SSE,150,3.0,7.0,90,0.00,,,-99.99,,2013-02-14 02:11:00,
2013-02-13 21:21:00,32.0,30.0,-100.00,SSE,150,2.0,5.0,91,0.00,,,-99.99,,2013-02-14 02:21:00,
2013-02-13 21:32:00,32.0,30.0,-100.00,SSE,150,3.0,6.0,92,0.00,,,-99.99,,2013-02-14 02:32:00,
2013-02-13 21:42:00,32.0,30.0,-100.00,SSE,150,3.0,6.0,92,0.00,,,-99.99,,2013-02-14 02:42:00,
2013-02-13 21:52:00,32.0,30.0,-100.00,SSE,150,3.0,6.0,92,0.00,,,-99.99,,2013-02-14 02:52:00,
2013-02-13 22:02:00,32.0,30.0,-100.00,SSE,165,2.0,4.0,93,0.00,,,-99.99,,2013-02-14 03:02:00,
2013-02-13 22:11:00,32.0,30.0,-100.00,SSE,155,2.0,4.0,93,0.00,,,-99.99,,2013-02-14 03:11:00,
2013-02-13 22:22:00,32.0,30.0,-100.00,SSE,155,2.0,4.0,93,0.00,,,-99.99,,2013-02-14 03:22:00,
2013-02-13 22:32:00,32.0,30.0,-100.00,SSE,155,3.0,6.0,94,0.00,,,-99.99,,2013-02-14 03:32:00,
2013-02-13 22:42:00,32.0,30.0,-100.00,SSE,165,1.0,3.0,94,0.00,,,-99.99,,2013-02-14 03:42:00,
2013-02-13 22:51:00,32.0,30.0,-100.00,SE,145,1.0,5.0,94,0.00,,,-99.99,,2013-02-14 03:51:00,
2013-02-13 23:01:00,32.0,30.0,-100.00,South,185,2.0,4.0,94,0.00,,,-99.99,,2013-02-14 04:01:00,
2013-02-13 23:12:00,32.0,31.0,-100.00,South,180,3.0,4.0,94,0.00,,,-99.99,,2013-02-14 04:12:00,
2013-02-13 23:21:00,32.0,31.0,-100.00,South,170,2.0,6.0,94,0.00,,,-99.99,,2013-02-14 04:21:00,
2013-02-13 23:32:00,32.0,31.0,-100.00,South,170,2.0,4.0,94,0.00,,,-99.99,,2013-02-14 04:32:00,
2013-02-13 23:41:00,32.0,31.0,-100.00,SE,135,1.0,4.0,94,0.00,,,-99.99,,2013-02-14 04:41:00,
2013-02-13 23:51:00,32.0,31.0,-100.00,SSE,160,2.0,5.0,94,0.00,,,-99.99,,2013-02-14 04:51:00,